Regional Weather Roundup
Issued by NWS

Home | Current Version | Previous Version | Text Only | Print | Product List | Glossary Off
Versions: 1 2 3 4 5 6 7 8 9 10 11 12 13 14 15 16 17 18 19 20 21 22 23 24 25 26 27 28 29 30 31 32 33 34 35 36 37 38 39 40 41 42 43 44 45 46 47 48 49 50

000
ASUS43 KIND 290359
RWRIN

WEATHER ROUNDUP FOR INDIANA
NATIONAL WEATHER SERVICE INDIANAPOLIS IN
1200 AM EDT MON AUG 29 2016

NOTE: "FAIR" INDICATES FEW OR NO CLOUDS BELOW 12,000 FEET WITH NO
SIGNIFICANT WEATHER AND/OR OBSTRUCTIONS TO VISIBILITY.

* - STATION DOES NOT REPORT WEATHER SUCH AS PRECIPITATION OR FOG.

+ - STATION NOT QUALITY CONTROLLED BY THE NATIONAL WEATHER SERVICE.
    USE DATA WITH CAUTION...ESPECIALLY DEWPOINT AND RELATIVE
    HUMIDITY OBSERVATIONS.

INZ001>003-010>013-019-020-290500-
NORTHWEST INDIANA

CITY           SKY/WX    TMP DP  RH WIND       PRES   REMARKS
KNOX *+          N/A     66  57  72 CALM      30.23R VSB 3/4
MONTICELLO +   CLOUDY    70  66  85 CALM      30.22R

$$

LMZ046-743>745-290500-
SOUTHERN LAKE MICHIGAN

STATION/POSITION TIME  TEMP    WIND        PRES    WAVE
                       AIR SEA DIR/SP/G            HT
                 (UTC) (F)     (DEG/KT/KT) (MB)    (FT)
BURNS HARBOR     0302   73      70/ 11/ 12 1023.7R
MICHIGAN CITY    0300   73      40/  9/ 10   N/A
5NW MICH CITY    0300   75 76   60/ 10/ 12   N/A     2

$$

INZ004-005-014>016-021>024-290500-
NORTH CENTRAL INDIANA

CITY           SKY/WX    TMP DP  RH WIND       PRES   REMARKS
GOSHEN         CLEAR     68  66  93 CALM      30.23S FOG
PERU/GRISSOM   CLOUDY    70  69  98 E5        30.21S
SOUTH BEND     CLEAR     69  68  96 N7        30.24R

$$

INZ006>009-017-018-025>027-290500-
NORTHEAST INDIANA

CITY           SKY/WX    TMP DP  RH WIND       PRES   REMARKS
ANGOLA *+      CLEAR     68  61  77 CALM      30.24S
FORT WAYNE     PTCLDY    68  65  90 CALM      30.23S

$$

INZ028-029-035-036-043>045-051>053-290500-
WEST CENTRAL INDIANA

CITY           SKY/WX    TMP DP  RH WIND       PRES   REMARKS
CRAWFORDSVL +  CLEAR     71  71 100 E7        30.21R
LAFAYETTE      CLOUDY    70  68  93 E7        30.21R
TERRE HAUTE    CLOUDY    78  71  79 E8        30.18R

$$

INZ030>032-037>040-046>048-054>057-064-065-290500-
CENTRAL INDIANA

CITY           SKY/WX    TMP DP  RH WIND       PRES   REMARKS
INDIANAPOLIS   CLEAR     75  68  78 SE9       30.20S
-EAGLE CREEK   CLEAR     75  68  78 SE8       30.20F
KOKOMO *+      CLEAR     70  66  88 SE7       30.22F
MT COMFORT *+  CLEAR     72  68  88 S7        30.22R
SHELBYVILLE    CLOUDY    73  67  81 S6        30.21S

$$

INZ033-034-041-042-049-050-058-059-290500-
EAST CENTRAL INDIANA

CITY           SKY/WX    TMP DP  RH WIND       PRES   REMARKS
MUNCIE         CLEAR     71  69  93 CALM      30.23F

$$

INZ060-061-067>069-081>083-085>088-290500-
SOUTHWEST INDIANA

CITY           SKY/WX    TMP DP  RH WIND       PRES   REMARKS
EVANSVILLE     CLOUDY    78  71  79 NE7       30.17R
HUNTINGBURG *+ CLOUDY    75  68  78 NE6       30.18S

$$

INZ062-063-066-070>080-084-089>092-290500-
SOUTH CENTRAL AND SOUTHEAST INDIANA

CITY           SKY/WX    TMP DP  RH WIND       PRES   REMARKS
BLOOMINGTON    PTCLDY    74  67  78 SE5       30.20S
MADISON *+     PTCLDY    72  68  88 CALM      30.22F

$$




USA.gov is the U.S. government's official web portal to all federal, state and local government web resources and services.